date,time,SUV Intensity [MED/Hr],UV Index,Daily total [MED],Since Last [MED]
13/08/2022,00:11:35,0.000,0.0,0.0,0.0
13/08/2022,00:12:35,0.000,0.0,0.0,0.0
13/08/2022,00:13:35,0.000,0.0,0.0,0.0
13/08/2022,00:14:35,0.001,0.0,0.0,0.0
13/08/2022,00:15:36,-0.000,0.0,0.0,0.0
13/08/2022,00:16:35,0.001,0.0,0.0,0.0
13/08/2022,00:17:35,0.000,0.0,0.0,0.0
13/08/2022,00:18:36,0.001,0.0,0.0,0.0
13/08/2022,00:19:44,0.001,0.0,0.0,0.0
13/08/2022,00:20:35,0.000,0.0,0.0,0.0
13/08/2022,00:21:35,0.000,0.0,0.0,0.0
13/08/2022,00:22:35,0.000,0.0,0.0,0.0
13/08/2022,00:23:35,0.001,0.0,0.0,0.0
13/08/2022,00:24:43,0.000,0.0,0.0,0.0
13/08/2022,00:25:36,0.000,0.0,0.0,0.0
13/08/2022,00:26:36,-0.000,0.0,0.0,0.0
13/08/2022,00:27:35,0.000,0.0,0.0,0.0
13/08/2022,00:28:35,0.000,0.0,0.0,0.0
13/08/2022,00:29:44,-0.000,0.0,0.0,0.0
13/08/2022,00:30:36,0.001,0.0,0.0,0.0
13/08/2022,00:31:35,0.001,0.0,0.0,0.0
13/08/2022,00:32:44,0.001,0.0,0.0,0.0
13/08/2022,00:33:35,0.002,0.0,0.0,0.0
13/08/2022,00:34:35,0.001,0.0,0.0,0.0
13/08/2022,00:35:36,0.001,0.0,0.0,0.0
13/08/2022,00:36:36,0.001,0.0,0.0,0.0
13/08/2022,00:37:35,0.000,0.0,0.0,0.0
13/08/2022,00:38:35,0.001,0.0,0.0,0.0
13/08/2022,00:39:35,0.001,0.0,0.0,0.0
13/08/2022,00:40:35,0.000,0.0,0.0,0.0
13/08/2022,00:41:35,0.001,0.0,0.0,0.0
13/08/2022,00:42:35,0.001,0.0,0.0,0.0
13/08/2022,00:43:35,0.001,0.0,0.0,0.0
13/08/2022,00:44:35,0.001,0.0,0.0,0.0
13/08/2022,00:45:35,0.001,0.0,0.0,0.0
13/08/2022,00:46:37,0.001,0.0,0.0,0.0
13/08/2022,00:47:36,0.001,0.0,0.0,0.0
13/08/2022,00:48:35,0.001,0.0,0.0,0.0
13/08/2022,00:49:35,0.001,0.0,0.0,0.0
13/08/2022,00:50:36,-0.000,0.0,0.0,0.0
13/08/2022,00:51:35,0.001,0.0,0.0,0.0
13/08/2022,00:52:35,-0.000,0.0,0.0,0.0
13/08/2022,00:53:35,0.002,0.0,0.0,0.0
13/08/2022,00:54:35,0.001,0.0,0.0,0.0
13/08/2022,00:55:35,0.001,0.0,0.0,0.0
13/08/2022,00:56:35,0.001,0.0,0.0,0.0
13/08/2022,00:57:35,0.002,0.0,0.0,0.0
13/08/2022,00:58:35,0.001,0.0,0.0,0.0
13/08/2022,00:59:36,0.001,0.0,0.0,0.0
13/08/2022,01:00:35,0.002,0.0,0.0,0.0
13/08/2022,01:01:35,0.001,0.0,0.0,0.0
13/08/2022,01:02:44,0.001,0.0,0.0,0.0
13/08/2022,01:03:35,0.002,0.0,0.0,0.0
13/08/2022,01:04:35,0.002,0.0,0.0,0.0
13/08/2022,01:05:43,0.001,0.0,0.0,0.0
13/08/2022,01:06:36,0.001,0.0,0.0,0.0
13/08/2022,01:07:36,0.001,0.0,0.0,0.0
13/08/2022,01:08:35,0.001,0.0,0.0,0.0
13/08/2022,01:09:36,0.001,0.0,0.0,0.0
13/08/2022,01:10:36,0.001,0.0,0.0,0.0
13/08/2022,01:11:35,0.001,0.0,0.0,0.0
13/08/2022,01:12:36,0.002,0.0,0.0,0.0
13/08/2022,01:13:35,0.001,0.0,0.0,0.0
13/08/2022,01:14:37,0.001,0.0,0.0,0.0
13/08/2022,01:15:36,0.001,0.0,0.0,0.0
13/08/2022,01:16:36,0.002,0.0,0.0,0.0
13/08/2022,01:17:44,0.001,0.0,0.0,0.0
13/08/2022,01:18:35,0.001,0.0,0.0,0.0
13/08/2022,01:19:35,0.002,0.0,0.0,0.0
13/08/2022,01:20:36,0.001,0.0,0.0,0.0
13/08/2022,01:21:44,0.001,0.0,0.0,0.0
13/08/2022,01:22:34,0.001,0.0,0.0,0.0
13/08/2022,01:23:36,0.001,0.0,0.0,0.0
13/08/2022,01:24:36,0.002,0.0,0.0,0.0
13/08/2022,01:25:35,0.001,0.0,0.0,0.0
13/08/2022,01:26:44,0.001,0.0,0.0,0.0
13/08/2022,01:27:35,0.001,0.0,0.0,0.0
13/08/2022,01:28:35,0.001,0.0,0.0,0.0
13/08/2022,01:29:35,0.001,0.0,0.0,0.0
13/08/2022,01:30:35,0.001,0.0,0.0,0.0
13/08/2022,01:31:36,0.001,0.0,0.0,0.0
13/08/2022,01:32:35,0.000,0.0,0.0,0.0
13/08/2022,01:33:37,0.001,0.0,0.0,0.0
13/08/2022,01:34:35,0.001,0.0,0.0,0.0
13/08/2022,01:35:35,0.001,0.0,0.0,0.0
13/08/2022,01:36:35,0.002,0.0,0.0,0.0
13/08/2022,01:37:35,0.002,0.0,0.0,0.0
13/08/2022,01:38:36,0.000,0.0,0.0,0.0
13/08/2022,01:39:36,0.001,0.0,0.0,0.0
13/08/2022,01:40:36,0.001,0.0,0.0,0.0
13/08/2022,01:41:35,0.001,0.0,0.0,0.0
13/08/2022,01:42:35,0.001,0.0,0.0,0.0
13/08/2022,01:43:35,0.002,0.0,0.0,0.0
13/08/2022,01:44:36,0.001,0.0,0.0,0.0
13/08/2022,01:45:35,0.001,0.0,0.0,0.0
13/08/2022,01:46:35,0.002,0.0,0.0,0.0
13/08/2022,01:47:35,0.001,0.0,0.0,0.0
13/08/2022,01:48:35,0.001,0.0,0.0,0.0
13/08/2022,01:49:35,0.001,0.0,0.0,0.0
13/08/2022,01:50:36,0.001,0.0,0.0,0.0
13/08/2022,01:51:35,0.001,0.0,0.0,0.0
13/08/2022,01:52:36,0.002,0.0,0.0,0.0
13/08/2022,01:53:35,0.001,0.0,0.0,0.0
13/08/2022,01:54:37,0.001,0.0,0.0,0.0
13/08/2022,01:55:35,0.002,0.0,0.0,0.0
13/08/2022,01:56:36,0.002,0.0,0.0,0.0
13/08/2022,01:57:36,0.002,0.0,0.0,0.0
13/08/2022,01:58:36,0.001,0.0,0.0,0.0
13/08/2022,01:59:35,0.002,0.0,0.0,0.0
13/08/2022,02:00:35,0.001,0.0,0.0,0.0
13/08/2022,02:01:35,0.002,0.0,0.0,0.0
13/08/2022,02:02:36,0.002,0.0,0.0,0.0
13/08/2022,02:03:35,0.001,0.0,0.0,0.0
13/08/2022,02:04:36,0.002,0.0,0.0,0.0
13/08/2022,02:05:35,0.002,0.0,0.0,0.0
13/08/2022,02:06:35,0.001,0.0,0.0,0.0
13/08/2022,02:07:36,0.002,0.0,0.0,0.0
13/08/2022,02:08:35,0.002,0.0,0.0,0.0
13/08/2022,02:09:35,0.002,0.0,0.0,0.0
13/08/2022,02:10:35,0.002,0.0,0.0,0.0
13/08/2022,02:11:36,0.002,0.0,0.0,0.0
13/08/2022,02:12:37,0.002,0.0,0.0,0.0
13/08/2022,02:13:35,0.002,0.0,0.0,0.0
13/08/2022,02:14:35,0.002,0.0,0.0,0.0
13/08/2022,02:15:36,0.002,0.0,0.0,0.0
13/08/2022,02:16:35,0.002,0.0,0.0,0.0
13/08/2022,02:17:52,0.002,0.0,0.0,0.0
13/08/2022,02:19:36,0.002,0.0,0.0,0.0
13/08/2022,02:20:36,0.002,0.0,0.0,0.0
13/08/2022,02:21:36,0.002,0.0,0.0,0.0
13/08/2022,02:22:35,0.002,0.0,0.0,0.0
13/08/2022,02:23:44,0.002,0.0,0.0,0.0
13/08/2022,02:24:35,0.002,0.0,0.0,0.0
13/08/2022,02:25:36,0.002,0.0,0.0,0.0
13/08/2022,02:26:35,0.002,0.0,0.0,0.0
13/08/2022,02:27:36,0.002,0.0,0.0,0.0
13/08/2022,02:28:35,0.002,0.0,0.0,0.0
13/08/2022,02:29:35,0.002,0.0,0.0,0.0
13/08/2022,02:30:35,0.002,0.0,0.0,0.0
13/08/2022,02:31:36,0.002,0.0,0.0,0.0
13/08/2022,02:32:43,0.001,0.0,0.0,0.0
13/08/2022,02:33:35,0.002,0.0,0.0,0.0
13/08/2022,02:34:44,0.002,0.0,0.0,0.0
13/08/2022,02:35:35,0.002,0.0,0.0,0.0
13/08/2022,02:36:36,0.002,0.0,0.0,0.0
13/08/2022,02:37:35,0.002,0.0,0.0,0.0
13/08/2022,02:38:35,0.002,0.0,0.0,0.0
13/08/2022,02:39:36,0.002,0.0,0.0,0.0
13/08/2022,02:40:36,0.002,0.0,0.0,0.0
13/08/2022,02:41:36,0.002,0.0,0.0,0.0
13/08/2022,02:42:35,0.001,0.0,0.0,0.0
13/08/2022,02:43:35,0.002,0.0,0.0,0.0
13/08/2022,02:44:36,0.002,0.0,0.0,0.0
13/08/2022,02:45:35,0.002,0.0,0.0,0.0
13/08/2022,02:46:36,0.002,0.0,0.0,0.0
13/08/2022,02:47:35,0.002,0.0,0.0,0.0
13/08/2022,02:48:35,0.002,0.0,0.0,0.0
13/08/2022,02:49:35,0.002,0.0,0.0,0.0
13/08/2022,02:50:35,0.002,0.0,0.0,0.0
13/08/2022,02:51:36,0.002,0.0,0.0,0.0
13/08/2022,02:52:35,0.002,0.0,0.0,0.0
13/08/2022,02:53:35,0.002,0.0,0.0,0.0
13/08/2022,02:54:36,0.002,0.0,0.0,0.0
13/08/2022,02:55:35,0.002,0.0,0.0,0.0
13/08/2022,02:56:35,0.002,0.0,0.0,0.0
13/08/2022,02:57:35,0.002,0.0,0.0,0.0
13/08/2022,02:58:35,0.002,0.0,0.0,0.0
13/08/2022,02:59:35,0.002,0.0,0.0,0.0
13/08/2022,03:00:35,0.002,0.0,0.0,0.0
13/08/2022,03:01:35,0.002,0.0,0.0,0.0
13/08/2022,03:02:35,0.002,0.0,0.0,0.0
13/08/2022,03:03:36,0.002,0.0,0.0,0.0
13/08/2022,03:04:37,0.002,0.0,0.0,0.0
13/08/2022,03:05:35,0.002,0.0,0.0,0.0
13/08/2022,03:06:35,0.002,0.0,0.0,0.0
13/08/2022,03:07:36,0.002,0.0,0.0,0.0
13/08/2022,03:08:35,0.002,0.0,0.0,0.0
13/08/2022,03:09:36,0.002,0.0,0.0,0.0
13/08/2022,03:10:35,0.002,0.0,0.0,0.0
13/08/2022,03:11:35,0.003,0.0,0.0,0.0
13/08/2022,03:12:36,0.002,0.0,0.0,0.0
13/08/2022,03:13:44,0.002,0.0,0.0,0.0
13/08/2022,03:14:35,0.002,0.0,0.0,0.0
13/08/2022,03:15:35,0.002,0.0,0.0,0.0
13/08/2022,03:16:36,0.002,0.0,0.0,0.0
13/08/2022,03:17:35,0.002,0.0,0.0,0.0
13/08/2022,03:18:44,0.002,0.0,0.0,0.0
13/08/2022,03:19:35,0.002,0.0,0.0,0.0
13/08/2022,03:20:35,0.002,0.0,0.0,0.0
13/08/2022,03:21:36,0.002,0.0,0.0,0.0
13/08/2022,03:22:36,0.002,0.0,0.0,0.0
13/08/2022,03:23:35,0.002,0.0,0.0,0.0
13/08/2022,03:24:36,0.002,0.0,0.0,0.0
13/08/2022,03:25:35,0.002,0.0,0.0,0.0
13/08/2022,03:26:35,0.002,0.0,0.0,0.0
13/08/2022,03:27:36,0.002,0.0,0.0,0.0
13/08/2022,03:28:35,0.002,0.0,0.0,0.0
13/08/2022,03:29:44,0.002,0.0,0.0,0.0
13/08/2022,03:30:35,0.002,0.0,0.0,0.0
13/08/2022,03:31:35,0.002,0.0,0.0,0.0
13/08/2022,03:32:35,0.002,0.0,0.0,0.0
13/08/2022,03:33:36,0.002,0.0,0.0,0.0
13/08/2022,03:34:35,0.002,0.0,0.0,0.0
13/08/2022,03:35:35,0.002,0.0,0.0,0.0
13/08/2022,03:36:36,0.002,0.0,0.0,0.0
13/08/2022,03:37:35,0.002,0.0,0.0,0.0
13/08/2022,03:38:35,0.002,0.0,0.0,0.0
13/08/2022,03:39:35,0.002,0.0,0.0,0.0
13/08/2022,03:40:35,0.002,0.0,0.0,0.0
13/08/2022,03:41:36,0.002,0.0,0.0,0.0
13/08/2022,03:42:36,0.002,0.0,0.0,0.0
13/08/2022,03:43:36,0.002,0.0,0.0,0.0
13/08/2022,03:44:36,0.003,0.0,0.0,0.0
13/08/2022,03:45:36,0.002,0.0,0.0,0.0
13/08/2022,03:46:36,0.002,0.0,0.0,0.0
13/08/2022,03:47:35,0.003,0.0,0.0,0.0
13/08/2022,03:48:35,0.002,0.0,0.0,0.0
13/08/2022,03:49:36,0.002,0.0,0.0,0.0
13/08/2022,03:50:36,0.002,0.0,0.0,0.0
13/08/2022,03:51:36,0.002,0.0,0.0,0.0
13/08/2022,03:52:36,0.002,0.0,0.0,0.0
13/08/2022,03:53:36,0.002,0.0,0.0,0.0
13/08/2022,03:54:44,0.002,0.0,0.0,0.0
13/08/2022,03:55:37,0.002,0.0,0.0,0.0
13/08/2022,03:56:35,0.002,0.0,0.0,0.0
13/08/2022,03:57:35,0.001,0.0,0.0,0.0
13/08/2022,03:58:36,0.002,0.0,0.0,0.0
13/08/2022,03:59:35,0.002,0.0,0.0,0.0
13/08/2022,04:00:36,0.003,0.0,0.0,0.0
13/08/2022,04:01:35,0.002,0.0,0.0,0.0
13/08/2022,04:02:36,0.002,0.0,0.0,0.0
13/08/2022,04:03:36,0.002,0.0,0.0,0.0
13/08/2022,04:04:36,0.002,0.0,0.0,0.0
13/08/2022,04:05:44,0.002,0.0,0.0,0.0
13/08/2022,04:06:36,0.002,0.0,0.0,0.0
13/08/2022,04:07:35,0.002,0.0,0.0,0.0
13/08/2022,04:08:36,0.002,0.0,0.0,0.0
13/08/2022,04:09:36,0.002,0.0,0.0,0.0
13/08/2022,04:10:36,0.002,0.0,0.0,0.0
13/08/2022,04:11:35,0.002,0.0,0.0,0.0
13/08/2022,04:12:35,0.003,0.0,0.0,0.0
13/08/2022,04:13:36,0.002,0.0,0.0,0.0
13/08/2022,04:14:35,0.002,0.0,0.0,0.0
13/08/2022,04:15:36,0.002,0.0,0.0,0.0
13/08/2022,04:16:36,0.002,0.0,0.0,0.0
13/08/2022,04:17:35,0.002,0.0,0.0,0.0
13/08/2022,04:18:36,0.002,0.0,0.0,0.0
13/08/2022,04:19:26,0.002,0.0,0.0,0.0
13/08/2022,04:20:36,0.002,0.0,0.0,0.0
13/08/2022,04:21:36,0.002,0.0,0.0,0.0
13/08/2022,04:22:35,0.003,0.0,0.0,0.0
13/08/2022,04:23:36,0.002,0.0,0.0,0.0
13/08/2022,04:24:35,0.002,0.0,0.0,0.0
13/08/2022,04:25:35,0.002,0.0,0.0,0.0
13/08/2022,04:26:36,0.002,0.0,0.0,0.0
13/08/2022,04:27:36,0.002,0.0,0.0,0.0
13/08/2022,04:28:36,0.002,0.0,0.0,0.0
13/08/2022,04:29:36,0.003,0.0,0.0,0.0
13/08/2022,04:30:35,0.003,0.0,0.0,0.0
13/08/2022,04:31:36,0.003,0.0,0.0,0.0
13/08/2022,04:32:36,0.003,0.0,0.0,0.0
13/08/2022,04:33:36,0.003,0.0,0.0,0.0
13/08/2022,04:34:44,0.003,0.0,0.0,0.0
13/08/2022,04:35:35,0.004,0.0,0.0,0.0
13/08/2022,04:36:36,0.004,0.0,0.0,0.0
13/08/2022,04:37:36,0.003,0.0,0.0,0.0
13/08/2022,04:38:36,0.002,0.0,0.0,0.0
13/08/2022,04:39:36,0.003,0.0,0.0,0.0
13/08/2022,04:40:36,0.002,0.0,0.0,0.0
13/08/2022,04:41:35,0.002,0.0,0.0,0.0
13/08/2022,04:42:36,0.002,0.0,0.0,0.0
13/08/2022,04:43:35,0.003,0.0,0.0,0.0
13/08/2022,04:44:44,0.003,0.0,0.0,0.0
13/08/2022,04:45:35,0.003,0.0,0.0,0.0
13/08/2022,04:46:35,0.004,0.0,0.0,0.0
13/08/2022,04:47:36,0.003,0.0,0.0,0.0
13/08/2022,04:48:35,0.003,0.0,0.0,0.0
13/08/2022,04:49:36,0.004,0.0,0.0,0.0
13/08/2022,04:50:35,0.004,0.0,0.0,0.0
13/08/2022,04:51:37,0.004,0.0,0.0,0.0
13/08/2022,04:52:44,0.005,0.0,0.0,0.0
13/08/2022,04:53:35,0.005,0.0,0.0,0.0
13/08/2022,04:54:35,0.004,0.0,0.0,0.0
13/08/2022,04:55:44,0.005,0.0,0.0,0.0
13/08/2022,04:56:36,0.004,0.0,0.0,0.0
13/08/2022,04:57:36,0.005,0.0,0.0,0.0
13/08/2022,04:58:36,0.005,0.0,0.0,0.0
13/08/2022,04:59:35,0.005,0.0,0.0,0.0
13/08/2022,05:00:36,0.005,0.0,0.0,0.0
13/08/2022,05:01:35,0.006,0.0,0.0,0.0
13/08/2022,05:02:35,0.006,0.0,0.0,0.0
13/08/2022,05:03:36,0.006,0.0,0.0,0.0
13/08/2022,05:04:36,0.006,0.0,0.0,0.0
13/08/2022,05:05:36,0.006,0.0,0.0,0.0
13/08/2022,05:06:36,0.007,0.0,0.0,0.0
13/08/2022,05:07:36,0.006,0.0,0.0,0.0
13/08/2022,05:08:38,0.008,0.0,0.001,0.001
13/08/2022,05:09:37,0.007,0.0,0.001,0.0
13/08/2022,05:10:35,0.007,0.0,0.001,0.0
13/08/2022,05:11:36,0.008,0.0,0.001,0.0
13/08/2022,05:12:35,0.008,0.0,0.001,0.0
13/08/2022,05:13:35,0.008,0.0,0.001,0.0
13/08/2022,05:14:36,0.009,0.0,0.001,0.0
13/08/2022,05:15:36,0.009,0.0,0.001,0.0
13/08/2022,05:16:36,0.009,0.0,0.002,0.001
13/08/2022,05:17:52,0.010,0.0,0.002,0.0
13/08/2022,05:19:37,0.010,0.0,0.002,0.0
13/08/2022,05:20:35,0.011,0.0,0.002,0.0
13/08/2022,05:21:36,0.011,0.0,0.002,0.0
13/08/2022,05:22:37,0.012,0.0,0.003,0.001
13/08/2022,05:23:36,0.012,0.0,0.003,0.0
13/08/2022,05:24:36,0.012,0.0,0.003,0.0
13/08/2022,05:25:36,0.013,0.0,0.003,0.0
13/08/2022,05:26:36,0.014,0.0,0.004,0.001
13/08/2022,05:27:36,0.014,0.0,0.004,0.0
13/08/2022,05:28:36,0.014,0.0,0.004,0.0
13/08/2022,05:29:44,0.015,0.0,0.004,0.0
13/08/2022,05:30:36,0.016,0.0,0.004,0.0
13/08/2022,05:31:44,0.015,0.0,0.005,0.001
13/08/2022,05:32:36,0.017,0.0,0.005,0.0
13/08/2022,05:33:36,0.017,0.0,0.005,0.0
13/08/2022,05:34:44,0.018,0.0,0.006,0.001
13/08/2022,05:35:36,0.019,0.0,0.006,0.0
13/08/2022,05:36:36,0.019,0.0,0.006,0.0
13/08/2022,05:37:35,0.019,0.0,0.007,0.001
13/08/2022,05:38:36,0.020,0.0,0.007,0.0
13/08/2022,05:39:35,0.021,0.0,0.007,0.0
13/08/2022,05:40:36,0.021,0.0,0.008,0.001
13/08/2022,05:41:36,0.023,0.0,0.008,0.0
13/08/2022,05:42:35,0.023,0.0,0.008,0.0
13/08/2022,05:43:36,0.024,0.0,0.009,0.001
13/08/2022,05:44:35,0.026,0.0,0.009,0.0
13/08/2022,05:45:35,0.026,0.0,0.009,0.0
13/08/2022,05:46:36,0.026,0.0,0.01,0.001
13/08/2022,05:47:36,0.026,0.0,0.01,0.0
13/08/2022,05:48:36,0.027,0.0,0.011,0.001
13/08/2022,05:49:36,0.028,0.0,0.011,0.0
13/08/2022,05:50:36,0.029,0.0,0.012,0.001
13/08/2022,05:51:35,0.030,0.0,0.012,0.0
13/08/2022,05:52:36,0.031,0.0,0.013,0.001
13/08/2022,05:53:36,0.032,0.0,0.013,0.0
13/08/2022,05:54:36,0.033,0.0,0.014,0.001
13/08/2022,05:55:36,0.033,0.0,0.014,0.0
13/08/2022,05:56:35,0.035,0.0,0.015,0.001
13/08/2022,05:57:36,0.036,0.0,0.015,0.0
13/08/2022,05:58:35,0.037,0.0,0.016,0.001
13/08/2022,05:59:35,0.038,0.0,0.017,0.001
13/08/2022,06:00:36,0.039,0.0,0.017,0.0
13/08/2022,06:01:36,0.040,0.0,0.018,0.001
13/08/2022,06:02:36,0.040,0.0,0.019,0.001
13/08/2022,06:03:36,0.041,0.0,0.019,0.0
13/08/2022,06:04:36,0.043,0.0,0.02,0.001
13/08/2022,06:05:44,0.044,0.0,0.021,0.001
13/08/2022,06:06:37,0.046,0.0,0.022,0.001
13/08/2022,06:07:35,0.046,0.0,0.022,0.0
13/08/2022,06:08:36,0.047,0.0,0.023,0.001
13/08/2022,06:09:36,0.048,0.0,0.024,0.001
13/08/2022,06:10:36,0.051,0.0,0.025,0.001
13/08/2022,06:11:36,0.052,0.0,0.026,0.001
13/08/2022,06:12:36,0.054,0.0,0.026,0.0
13/08/2022,06:13:36,0.053,0.0,0.027,0.001
13/08/2022,06:14:36,0.056,0.0,0.028,0.001
13/08/2022,06:15:36,0.058,0.0,0.029,0.001
13/08/2022,06:16:44,0.059,0.0,0.03,0.001
13/08/2022,06:17:36,0.059,0.0,0.031,0.001
13/08/2022,06:18:36,0.061,0.0,0.032,0.001
13/08/2022,06:19:44,0.063,0.0,0.033,0.001
13/08/2022,06:20:36,0.065,0.0,0.034,0.001
13/08/2022,06:21:35,0.065,0.0,0.035,0.001
13/08/2022,06:22:36,0.067,0.0,0.036,0.001
13/08/2022,06:23:36,0.069,0.0,0.038,0.002
13/08/2022,06:24:36,0.071,0.0,0.039,0.001
13/08/2022,06:25:39,0.073,0.0,0.04,0.001
13/08/2022,06:26:37,0.073,0.0,0.041,0.001
13/08/2022,06:27:36,0.076,0.0,0.042,0.001
13/08/2022,06:28:36,0.078,0.0,0.044,0.002
13/08/2022,06:29:36,0.080,0.0,0.045,0.001
13/08/2022,06:30:36,0.081,0.0,0.046,0.001
13/08/2022,06:31:36,0.083,0.0,0.048,0.002
13/08/2022,06:32:35,0.085,0.0,0.049,0.001
13/08/2022,06:33:36,0.087,0.0,0.051,0.002
13/08/2022,06:34:36,0.088,0.0,0.052,0.001
13/08/2022,06:35:36,0.090,0.0,0.054,0.002
13/08/2022,06:36:36,0.093,0.0,0.055,0.001
13/08/2022,06:37:36,0.095,0.0,0.057,0.002
13/08/2022,06:38:37,0.097,0.0,0.058,0.001
13/08/2022,06:39:36,0.100,0.0,0.06,0.002
13/08/2022,06:40:36,0.102,0.0,0.062,0.002
13/08/2022,06:41:36,0.104,0.0,0.063,0.001
13/08/2022,06:42:36,0.106,0.0,0.065,0.002
13/08/2022,06:43:35,0.109,0.0,0.067,0.002
13/08/2022,06:44:36,0.111,0.0,0.069,0.002
13/08/2022,06:45:36,0.114,0.0,0.071,0.002
13/08/2022,06:46:36,0.116,0.0,0.072,0.001
13/08/2022,06:47:44,0.119,0.0,0.075,0.003
13/08/2022,06:48:36,0.120,0.0,0.076,0.001
13/08/2022,06:49:36,0.123,0.0,0.078,0.002
13/08/2022,06:50:46,0.125,0.0,0.081,0.003
13/08/2022,06:51:41,0.128,0.0,0.083,0.002
13/08/2022,06:52:36,0.130,0.0,0.085,0.002
13/08/2022,06:53:36,0.133,0.0,0.087,0.002
13/08/2022,06:54:36,0.134,0.0,0.089,0.002
13/08/2022,06:55:44,0.138,0.0,0.092,0.003
13/08/2022,06:56:36,0.141,0.0,0.094,0.002
13/08/2022,06:57:27,0.143,0.0,0.096,0.002
13/08/2022,06:58:36,0.146,0.0,0.099,0.003
13/08/2022,06:59:35,0.150,0.0,0.101,0.002
13/08/2022,07:00:36,0.152,0.0,0.103,0.002
13/08/2022,07:01:36,0.154,0.0,0.106,0.003
13/08/2022,07:02:36,0.157,0.0,0.109,0.003
13/08/2022,07:03:36,0.160,0.0,0.111,0.002
13/08/2022,07:04:36,0.163,0.0,0.114,0.003
13/08/2022,07:05:36,0.166,0.0,0.117,0.003
13/08/2022,07:06:35,0.168,0.0,0.119,0.002
13/08/2022,07:07:36,0.171,0.0,0.122,0.003
13/08/2022,07:08:36,0.174,0.0,0.125,0.003
13/08/2022,07:09:36,0.177,0.0,0.128,0.003
13/08/2022,07:10:36,0.179,0.0,0.131,0.003
13/08/2022,07:11:36,0.183,0.0,0.134,0.003
13/08/2022,07:12:36,0.186,0.0,0.137,0.003
13/08/2022,07:13:36,0.189,0.0,0.14,0.003
13/08/2022,07:14:36,0.193,0.0,0.143,0.003
13/08/2022,07:15:35,0.195,0.0,0.147,0.004
13/08/2022,07:16:36,0.195,0.0,0.15,0.003
13/08/2022,07:17:36,0.201,0.0,0.153,0.003
13/08/2022,07:18:36,0.199,0.0,0.157,0.004
13/08/2022,07:19:36,0.209,0.0,0.16,0.003
13/08/2022,07:20:36,0.211,0.0,0.163,0.003
13/08/2022,07:21:36,0.211,0.0,0.167,0.004
13/08/2022,07:22:36,0.219,1.0,0.171,0.004
13/08/2022,07:23:36,0.219,1.0,0.174,0.003
13/08/2022,07:24:36,0.224,1.0,0.178,0.004
13/08/2022,07:25:36,0.226,1.0,0.182,0.004
13/08/2022,07:26:36,0.234,1.0,0.186,0.004
13/08/2022,07:27:36,0.228,1.0,0.189,0.003
13/08/2022,07:28:36,0.240,1.0,0.193,0.004
13/08/2022,07:29:45,0.241,1.0,0.198,0.005
13/08/2022,07:30:36,0.247,1.0,0.202,0.004
13/08/2022,07:31:37,0.255,1.0,0.206,0.004
13/08/2022,07:32:36,0.258,1.0,0.21,0.004
13/08/2022,07:33:36,0.259,1.0,0.214,0.004
13/08/2022,07:34:36,0.267,1.0,0.219,0.005
13/08/2022,07:35:36,0.269,1.0,0.223,0.004
13/08/2022,07:36:36,0.276,1.0,0.228,0.005
13/08/2022,07:37:36,0.280,1.0,0.232,0.004
13/08/2022,07:38:36,0.283,1.0,0.237,0.005
13/08/2022,07:39:36,0.289,1.0,0.242,0.005
13/08/2022,07:40:44,0.290,1.0,0.247,0.005
13/08/2022,07:41:36,0.298,1.0,0.252,0.005
13/08/2022,07:42:36,0.303,1.0,0.257,0.005
13/08/2022,07:43:36,0.307,1.0,0.262,0.005
13/08/2022,07:44:53,0.313,1.0,0.268,0.006
13/08/2022,07:46:54,0.323,1.0,0.279,0.011
13/08/2022,07:48:37,0.331,1.0,0.288,0.009
13/08/2022,07:49:36,0.337,1.0,0.294,0.006
13/08/2022,07:50:36,0.342,1.0,0.3,0.006
13/08/2022,07:51:36,0.347,1.0,0.305,0.005
13/08/2022,07:52:36,0.351,1.0,0.311,0.006
13/08/2022,07:53:36,0.357,1.0,0.317,0.006
13/08/2022,07:54:36,0.361,1.0,0.323,0.006
13/08/2022,07:55:36,0.367,1.0,0.329,0.006
13/08/2022,07:56:36,0.372,1.0,0.335,0.006
13/08/2022,07:57:36,0.379,1.0,0.342,0.007
13/08/2022,07:58:36,0.383,1.0,0.348,0.006
13/08/2022,07:59:36,0.389,1.0,0.354,0.006
13/08/2022,08:00:44,0.395,1.0,0.362,0.008
13/08/2022,08:01:35,0.399,1.0,0.367,0.005
13/08/2022,08:02:37,0.406,1.0,0.374,0.007
13/08/2022,08:03:36,0.411,1.0,0.381,0.007
13/08/2022,08:04:36,0.416,1.0,0.388,0.007
13/08/2022,08:05:36,0.421,1.0,0.395,0.007
13/08/2022,08:06:36,0.426,1.0,0.402,0.007
13/08/2022,08:07:36,0.432,1.0,0.409,0.007
13/08/2022,08:08:36,0.437,1.0,0.416,0.007
13/08/2022,08:09:36,0.442,1.0,0.424,0.008
13/08/2022,08:10:36,0.448,1.0,0.431,0.007
13/08/2022,08:11:44,0.455,1.0,0.44,0.009
13/08/2022,08:12:36,0.459,1.0,0.446,0.006
13/08/2022,08:13:36,0.464,1.0,0.454,0.008
13/08/2022,08:14:36,0.469,1.0,0.462,0.008
13/08/2022,08:15:36,0.474,1.0,0.47,0.008
13/08/2022,08:16:36,0.481,1.0,0.477,0.007
13/08/2022,08:17:36,0.485,1.0,0.485,0.008
13/08/2022,08:18:36,0.493,1.0,0.494,0.009
13/08/2022,08:19:36,0.500,1.0,0.502,0.008
13/08/2022,08:20:36,0.505,1.0,0.51,0.008
13/08/2022,08:21:36,0.509,1.0,0.519,0.009
13/08/2022,08:22:36,0.517,1.0,0.527,0.008
13/08/2022,08:23:36,0.521,1.0,0.536,0.009
13/08/2022,08:24:36,0.527,1.0,0.545,0.009
13/08/2022,08:25:36,0.517,1.0,0.553,0.008
13/08/2022,08:26:36,0.535,1.0,0.562,0.009
13/08/2022,08:27:36,0.540,1.0,0.571,0.009
13/08/2022,08:28:36,0.541,1.0,0.58,0.009
13/08/2022,08:29:36,0.547,1.0,0.589,0.009
13/08/2022,08:30:36,0.559,1.0,0.599,0.01
13/08/2022,08:31:36,0.575,1.0,0.608,0.009
13/08/2022,08:32:36,0.584,1.0,0.618,0.01
13/08/2022,08:33:37,0.591,1.0,0.627,0.009
13/08/2022,08:34:36,0.597,1.0,0.637,0.01
13/08/2022,08:35:36,0.604,1.0,0.647,0.01
13/08/2022,08:36:36,0.608,1.0,0.657,0.01
13/08/2022,08:37:36,0.617,1.0,0.668,0.011
13/08/2022,08:38:36,0.623,1.0,0.678,0.01
13/08/2022,08:39:36,0.630,1.0,0.688,0.01
13/08/2022,08:40:36,0.636,1.0,0.699,0.011
13/08/2022,08:41:36,0.643,1.0,0.71,0.011
13/08/2022,08:42:44,0.650,1.0,0.722,0.012
13/08/2022,08:43:36,0.659,2.0,0.731,0.009
13/08/2022,08:44:36,0.663,2.0,0.742,0.011
13/08/2022,08:45:36,0.668,2.0,0.753,0.011
13/08/2022,08:46:36,0.675,2.0,0.765,0.012
13/08/2022,08:47:45,0.684,2.0,0.777,0.012
13/08/2022,08:48:36,0.690,2.0,0.787,0.01
13/08/2022,08:49:36,0.700,2.0,0.799,0.012
13/08/2022,08:50:36,0.706,2.0,0.811,0.012
13/08/2022,08:51:36,0.714,2.0,0.823,0.012
13/08/2022,08:52:36,0.725,2.0,0.835,0.012
13/08/2022,08:53:36,0.732,2.0,0.847,0.012
13/08/2022,08:54:37,0.739,2.0,0.859,0.012
13/08/2022,08:55:36,0.748,2.0,0.871,0.012
13/08/2022,08:56:36,0.754,2.0,0.884,0.013
13/08/2022,08:57:36,0.764,2.0,0.896,0.012
13/08/2022,08:58:36,0.769,2.0,0.909,0.013
13/08/2022,08:59:36,0.776,2.0,0.922,0.013
13/08/2022,09:00:36,0.784,2.0,0.935,0.013
13/08/2022,09:01:36,0.790,2.0,0.948,0.013
13/08/2022,09:02:36,0.802,2.0,0.961,0.013
13/08/2022,09:03:36,0.807,2.0,0.975,0.014
13/08/2022,09:04:36,0.811,2.0,0.988,0.013
13/08/2022,09:05:36,0.816,2.0,1.002,0.014
13/08/2022,09:06:36,0.825,2.0,1.016,0.014
13/08/2022,09:07:36,0.831,2.0,1.029,0.013
13/08/2022,09:08:36,0.839,2.0,1.043,0.014
13/08/2022,09:09:36,0.848,2.0,1.057,0.014
13/08/2022,09:10:36,0.850,2.0,1.071,0.014
13/08/2022,09:11:37,0.854,2.0,1.086,0.015
13/08/2022,09:12:36,0.863,2.0,1.1,0.014
13/08/2022,09:13:36,0.870,2.0,1.114,0.014
13/08/2022,09:14:36,0.877,2.0,1.129,0.015
13/08/2022,09:15:36,0.884,2.0,1.144,0.015
13/08/2022,09:16:36,0.891,2.0,1.158,0.014
13/08/2022,09:17:36,0.898,2.0,1.173,0.015
13/08/2022,09:18:36,0.905,2.0,1.188,0.015
13/08/2022,09:19:36,0.908,2.0,1.203,0.015
13/08/2022,09:20:36,0.915,2.0,1.219,0.016
13/08/2022,09:21:44,0.924,2.0,1.236,0.017
13/08/2022,09:22:36,0.930,2.0,1.249,0.013
13/08/2022,09:23:45,0.938,2.0,1.267,0.018
13/08/2022,09:24:38,0.944,2.0,1.281,0.014
13/08/2022,09:25:36,0.953,2.0,1.296,0.015
13/08/2022,09:26:44,0.963,2.0,1.314,0.018
13/08/2022,09:27:36,0.968,2.0,1.328,0.014
13/08/2022,09:28:37,0.976,2.0,1.345,0.017
13/08/2022,09:29:44,0.983,2.0,1.363,0.018
13/08/2022,09:30:36,0.987,2.0,1.377,0.014
13/08/2022,09:31:36,0.996,2.0,1.394,0.017
13/08/2022,09:32:36,1.001,2.0,1.41,0.016
13/08/2022,09:33:36,1.010,2.0,1.427,0.017
13/08/2022,09:34:44,1.019,2.0,1.446,0.019
13/08/2022,09:35:36,1.025,2.0,1.461,0.015
13/08/2022,09:36:36,1.032,2.0,1.478,0.017
13/08/2022,09:37:44,1.040,2.0,1.498,0.02
13/08/2022,09:38:36,1.045,2.0,1.513,0.015
13/08/2022,09:39:36,1.053,2.0,1.53,0.017
13/08/2022,09:40:36,1.063,2.0,1.548,0.018
13/08/2022,09:41:36,1.068,2.0,1.566,0.018
13/08/2022,09:42:36,1.074,2.0,1.584,0.018
13/08/2022,09:43:36,1.083,2.0,1.602,0.018
13/08/2022,09:44:36,1.091,3.0,1.62,0.018
13/08/2022,09:45:36,1.096,3.0,1.638,0.018
13/08/2022,09:46:36,1.103,3.0,1.656,0.018
13/08/2022,09:47:36,1.111,3.0,1.675,0.019
13/08/2022,09:48:36,1.119,3.0,1.693,0.018
13/08/2022,09:49:36,1.124,3.0,1.712,0.019
13/08/2022,09:50:37,1.131,3.0,1.731,0.019
13/08/2022,09:51:37,1.137,3.0,1.75,0.019
13/08/2022,09:52:36,1.142,3.0,1.769,0.019
13/08/2022,09:53:36,1.147,3.0,1.788,0.019
13/08/2022,09:54:36,1.155,3.0,1.807,0.019
13/08/2022,09:55:36,1.165,3.0,1.826,0.019
13/08/2022,09:56:37,1.169,3.0,1.846,0.02
13/08/2022,09:57:36,1.178,3.0,1.865,0.019
13/08/2022,09:58:36,1.185,3.0,1.885,0.02
13/08/2022,09:59:37,1.194,3.0,1.905,0.02
13/08/2022,10:00:36,1.201,3.0,1.925,0.02
13/08/2022,10:01:36,1.204,3.0,1.945,0.02
13/08/2022,10:02:36,1.214,3.0,1.965,0.02
13/08/2022,10:03:36,1.220,3.0,1.985,0.02
13/08/2022,10:04:37,1.226,3.0,2.006,0.021
13/08/2022,10:05:36,1.232,3.0,2.026,0.02
13/08/2022,10:06:36,1.240,3.0,2.047,0.021
13/08/2022,10:07:36,1.249,3.0,2.067,0.02
13/08/2022,10:08:36,1.256,3.0,2.088,0.021
13/08/2022,10:09:36,1.264,3.0,2.109,0.021
13/08/2022,10:10:36,1.269,3.0,2.13,0.021
13/08/2022,10:11:36,1.273,3.0,2.152,0.022
13/08/2022,10:12:37,1.288,3.0,2.173,0.021
13/08/2022,10:13:36,1.294,3.0,2.194,0.021
13/08/2022,10:14:36,1.296,3.0,2.216,0.022